| time (UTC) | temp F | wind direction | speed MPH | gust MPH | rain 1hr in | rain 24hr in | rain mn in | humidity % | barometer mb |
| 20260503234655 | 69 | 214 | 0.0 | 1.0 | 0.00 | 0.00 | 0.00 | 54 | 1008.3 |
| 20260503234153 | 68 | 215 | 2.0 | 2.0 | 0.00 | 0.00 | 0.00 | 54 | 1008.4 |
| 20260503233649 | 68 | 224 | 0.0 | 1.0 | 0.00 | 0.00 | 0.00 | 54 | 1008.5 |
| 20260503233145 | 68 | 223 | 3.0 | 5.0 | 0.00 | 0.00 | 0.00 | 53 | 1008.5 |
| 20260503232642 | 69 | 232 | 2.0 | 2.0 | 0.00 | 0.00 | 0.00 | 53 | 1008.4 |
| 20260503232140 | 69 | 231 | 1.0 | 2.0 | 0.00 | 0.00 | 0.00 | 53 | 1008.6 |
| 20260503231638 | 69 | 240 | 3.0 | 3.0 | 0.00 | 0.00 | 0.00 | 52 | 1008.4 |
| 20260503231134 | 69 | 222 | 2.0 | 2.0 | 0.00 | 0.00 | 0.00 | 52 | 1008.6 |
| 20260503230631 | 69 | 215 | 1.0 | 1.0 | 0.00 | 0.00 | 0.00 | 52 | 1008.6 |
| 20260503230128 | 69 | 248 | 3.0 | 5.0 | 0.00 | 0.00 | 0.00 | 52 | 1008.6 |
| 20260503225626 | 69 | 206 | 2.0 | 2.0 | 0.00 | 0.00 | 0.00 | 51 | 1008.4 |
| 20260503225125 | 69 | 227 | 3.0 | 5.0 | 0.00 | 0.00 | 0.00 | 53 | 1008.7 |
| 20260503224623 | 69 | 243 | 3.0 | 3.0 | 0.00 | 0.00 | 0.00 | 52 | 1008.8 |
| 20260503224121 | 69 | 236 | 1.0 | 2.0 | 0.00 | 0.00 | 0.00 | 53 | 1009.0 |
| 20260503223618 | 69 | 251 | 3.0 | 5.0 | 0.00 | 0.00 | 0.00 | 52 | 1009.0 |
| 20260503223114 | 69 | 244 | 3.0 | 3.0 | 0.00 | 0.00 | 0.00 | 52 | 1008.7 |
| 20260503222612 | 70 | 247 | 3.0 | 3.0 | 0.00 | 0.00 | 0.00 | 51 | 1008.4 |
| 20260503222109 | 69 | 219 | 0.0 | 1.0 | 0.00 | 0.00 | 0.00 | 51 | 1008.4 |
| 20260503221608 | 69 | 224 | 1.0 | 1.0 | 0.00 | 0.00 | 0.00 | 53 | 1008.5 |
| 20260503221105 | 69 | 255 | 3.0 | 5.0 | 0.00 | 0.00 | 0.00 | 52 | 1008.5 |
| 20260503220601 | 69 | 256 | 3.0 | 6.0 | 0.00 | 0.00 | 0.00 | 53 | 1008.7 |
| 20260503220058 | 69 | 225 | 3.0 | 3.0 | 0.00 | 0.00 | 0.00 | 53 | 1008.8 |
| 20260503215555 | 69 | 244 | 3.0 | 3.0 | 0.00 | 0.00 | 0.00 | 53 | 1008.7 |
| 20260503215052 | 68 | 229 | 0.0 | 0.0 | 0.00 | 0.00 | 0.00 | 55 | 1008.6 |
| 20260503214550 | 68 | 232 | 0.0 | 0.0 | 0.00 | 0.00 | 0.00 | 54 | 1008.8 |
| 20260503214046 | 68 | 244 | 3.0 | 5.0 | 0.00 | 0.00 | 0.00 | 53 | 1009.1 |
| 20260503213545 | 67 | 220 | 1.0 | 3.0 | 0.00 | 0.00 | 0.00 | 55 | 1009.1 |
| 20260503213041 | 66 | 221 | 0.0 | 0.0 | 0.00 | 0.00 | 0.00 | 57 | 1009.1 |
| 20260503212538 | 67 | 222 | 0.0 | 0.0 | 0.00 | 0.00 | 0.00 | 56 | 1008.8 |
| 20260503212036 | 67 | 222 | 0.0 | 0.0 | 0.00 | 0.00 | 0.00 | 55 | 1008.7 |
| 20260503211533 | 67 | 224 | 1.0 | 1.0 | 0.00 | 0.00 | 0.00 | 54 | 1008.3 |
| 20260503211028 | 67 | 212 | 0.0 | 0.0 | 0.00 | 0.00 | 0.00 | 53 | 1009.0 |
| 20260503210525 | 67 | 221 | 1.0 | 2.0 | 0.00 | 0.00 | 0.00 | 53 | 1009.0 |
| 20260503210021 | 67 | 214 | 1.0 | 1.0 | 0.00 | 0.00 | 0.00 | 54 | 1008.7 |
| 20260503205518 | 67 | 218 | 1.0 | 1.0 | 0.00 | 0.00 | 0.00 | 52 | 1008.7 |
| 20260503205014 | 67 | 225 | 1.0 | 2.0 | 0.00 | 0.00 | 0.00 | 50 | 1009.4 |
| 20260503204512 | 67 | 228 | 0.0 | 1.0 | 0.00 | 0.00 | 0.00 | 51 | 1009.2 |
| 20260503204008 | 66 | 230 | 3.0 | 3.0 | 0.00 | 0.00 | 0.00 | 52 | 1009.8 |
| 20260503203506 | 66 | 210 | 0.0 | 1.0 | 0.00 | 0.00 | 0.00 | 51 | 1009.8 |
| 20260503203002 | 66 | 219 | 0.0 | 0.0 | 0.00 | 0.00 | 0.00 | 50 | 1009.5 |
| 20260503202500 | 66 | 228 | 0.0 | 0.0 | 0.00 | 0.00 | 0.00 | 51 | 1009.2 |
| 20260503201958 | 66 | 248 | 5.0 | 7.0 | 0.00 | 0.00 | 0.00 | 50 | 1009.3 |
| 20260503201456 | 66 | 233 | 2.0 | 3.0 | 0.00 | 0.00 | 0.00 | 52 | 1009.0 |
| 20260503200953 | 66 | 232 | 2.0 | 3.0 | 0.00 | 0.00 | 0.00 | 49 | 1009.3 |
| 20260503200449 | 66 | 213 | 1.0 | 2.0 | 0.00 | 0.00 | 0.00 | 50 | 1010.1 |
| 20260503195946 | 65 | 230 | 2.0 | 2.0 | 0.00 | 0.00 | 0.00 | 50 | 1010.1 |
| 20260503195443 | 66 | 220 | 1.0 | 1.0 | 0.00 | 0.00 | 0.00 | 49 | 1009.8 |
| 20260503194940 | 66 | 208 | 2.0 | 3.0 | 0.00 | 0.00 | 0.00 | 50 | 1009.4 |
| 20260503194437 | 66 | 132 | 3.0 | 3.0 | 0.00 | 0.00 | 0.00 | 48 | 1009.6 |
| 20260503193932 | 66 | 220 | 1.0 | 1.0 | 0.00 | 0.00 | 0.00 | 48 | 1009.9 |
| 20260503193428 | 66 | 221 | 0.0 | 1.0 | 0.00 | 0.00 | 0.00 | 52 | 1010.3 |
| 20260503192923 | 65 | 221 | 1.0 | 1.0 | 0.00 | 0.00 | 0.00 | 49 | 1010.8 |
| 20260503192420 | 66 | 263 | 1.0 | 1.0 | 0.00 | 0.00 | 0.00 | 49 | 1010.9 |
| 20260503191916 | 66 | 230 | 1.0 | 2.0 | 0.00 | 0.00 | 0.00 | 49 | 1011.0 |
| 20260503191414 | 67 | 238 | 3.0 | 3.0 | 0.00 | 0.00 | 0.00 | 47 | 1009.9 |
| 20260503190910 | 67 | 189 | 4.0 | 6.0 | 0.00 | 0.00 | 0.00 | 45 | 1009.8 |
| 20260503190408 | 65 | 236 | 1.0 | 2.0 | 0.00 | 0.00 | 0.00 | 48 | 1010.1 |
| 20260503185904 | 65 | 207 | 2.0 | 2.0 | 0.00 | 0.00 | 0.00 | 48 | 1010.9 |
| 20260503185400 | 65 | 259 | 4.0 | 6.0 | 0.00 | 0.00 | 0.00 | 46 | 1011.3 |
| 20260503184900 | 65 | 229 | 3.0 | 3.0 | 0.00 | 0.00 | 0.00 | 48 | 1010.6 |
| 20260503184356 | 66 | 123 | 4.0 | 5.0 | 0.00 | 0.00 | 0.00 | 47 | 1010.0 |
| 20260503183852 | 65 | 213 | 2.0 | 3.0 | 0.00 | 0.00 | 0.00 | 47 | 1010.6 |
| 20260503183349 | 66 | 229 | 3.0 | 3.0 | 0.00 | 0.00 | 0.00 | 46 | 1010.3 |
| 20260503182847 | 66 | 214 | 2.0 | 3.0 | 0.00 | 0.00 | 0.00 | 46 | 1010.7 |
| 20260503182346 | 66 | 205 | 1.0 | 2.0 | 0.00 | 0.00 | 0.00 | 47 | 1011.1 |
| 20260503181842 | 66 | 258 | 3.0 | 5.0 | 0.00 | 0.00 | 0.00 | 45 | 1011.1 |
| 20260503181339 | 67 | 207 | 3.0 | 3.0 | 0.00 | 0.00 | 0.00 | 45 | 1011.2 |
| 20260503180836 | 65 | 231 | 2.0 | 2.0 | 0.00 | 0.00 | 0.00 | 49 | 1010.9 |
| 20260503180334 | 65 | 223 | 1.0 | 2.0 | 0.00 | 0.00 | 0.00 | 49 | 1011.7 |
| 20260503175830 | 66 | 226 | 1.0 | 2.0 | 0.00 | 0.00 | 0.00 | 46 | 1011.7 |
| 20260503175328 | 66 | 260 | 2.0 | 3.0 | 0.00 | 0.00 | 0.00 | 46 | 1011.4 |
| 20260503174823 | 66 | 217 | 3.0 | 6.0 | 0.00 | 0.00 | 0.00 | 45 | 1011.4 |
| 20260503174322 | 67 | 203 | 1.0 | 1.0 | 0.00 | 0.00 | 0.00 | 45 | 1011.7 |
| 20260503173817 | 68 | 208 | 2.0 | 5.0 | 0.00 | 0.00 | 0.00 | 45 | 1011.5 |
| 20260503173314 | 69 | 238 | 2.0 | 6.0 | 0.00 | 0.00 | 0.00 | 47 | 1011.8 |
| 20260503172810 | 67 | 169 | 3.0 | 3.0 | 0.00 | 0.00 | 0.00 | 45 | 1012.1 |
| 20260503172308 | 66 | 228 | 2.0 | 2.0 | 0.00 | 0.00 | 0.00 | 47 | 1012.0 |
| 20260503171804 | 66 | 253 | 5.0 | 8.0 | 0.00 | 0.00 | 0.00 | 45 | 1012.4 |
| 20260503171301 | 67 | 219 | 3.0 | 5.0 | 0.00 | 0.00 | 0.00 | 44 | 1012.5 |
| 20260503170758 | 66 | 183 | 5.0 | 7.0 | 0.00 | 0.00 | 0.00 | 45 | 1012.6 |
| 20260503170254 | 66 | 227 | 4.0 | 6.0 | 0.00 | 0.00 | 0.00 | 46 | 1012.6 |
| 20260503160217 | 61 | 201 | 3.0 | 3.0 | 0.00 | 0.00 | 0.00 | 53 | 1013.1 |
| 20260503150647 | 58 | 220 | 1.0 | 1.0 | 0.00 | 0.00 | 0.00 | 57 | 1014.7 |
| 20260503150143 | 59 | 230 | 1.0 | 2.0 | 0.00 | 0.00 | 0.00 | 57 | 1014.8 |
| 20260503140107 | 57 | 204 | 3.0 | 3.0 | 0.00 | 0.00 | 0.00 | 57 | 1016.0 |
| 20260503131037 | 51 | 214 | 0.0 | 0.0 | 0.00 | 0.00 | 0.00 | 69 | 1016.8 |
| 20260503130534 | 51 | 219 | 1.0 | 1.0 | 0.00 | 0.00 | 0.00 | 69 | 1016.6 |
| 20260503110424 | 43 | 214 | 0.0 | 0.0 | 0.00 | 0.00 | 0.00 | 82 | 1016.5 |
| 20260503090310 | 45 | 211 | 0.0 | 0.0 | 0.00 | 0.00 | 0.00 | 76 | 1017.1 |
| 20260503081237 | 45 | 215 | 0.0 | 0.0 | 0.00 | 0.00 | 0.00 | 76 | 1017.0 |
| 20260503080732 | 45 | 215 | 0.0 | 0.0 | 0.00 | 0.00 | 0.00 | 76 | 1016.9 |
| 20260503080230 | 44 | 221 | 0.0 | 0.0 | 0.00 | 0.00 | 0.00 | 77 | 1017.3 |
| 20260503072706 | 44 | 213 | 0.0 | 0.0 | 0.00 | 0.00 | 0.00 | 77 | 1017.4 |
| 20260503072203 | 43 | 213 | 0.0 | 0.0 | 0.00 | 0.00 | 0.00 | 77 | 1017.4 |
| 20260503071700 | 43 | 213 | 0.0 | 0.0 | 0.00 | 0.00 | 0.00 | 77 | 1017.3 |
| 20260503071157 | 43 | 213 | 0.0 | 0.0 | 0.00 | 0.00 | 0.00 | 77 | 1017.6 |
| 20260503070653 | 43 | 213 | 0.0 | 0.0 | 0.00 | 0.00 | 0.00 | 77 | 1017.6 |
| 20260503070152 | 43 | 213 | 0.0 | 0.0 | 0.00 | 0.00 | 0.00 | 76 | 1017.5 |
| 20260503060116 | 44 | 213 | 0.0 | 0.0 | 0.00 | 0.00 | 0.00 | 73 | 1018.0 |
| 20260503055108 | 43 | 213 | 0.0 | 0.0 | 0.00 | 0.00 | 0.00 | 74 | 1018.1 |
| 20260503054603 | 44 | 213 | 0.0 | 0.0 | 0.00 | 0.00 | 0.00 | 76 | 1018.1 |
| 20260503054100 | 44 | 213 | 0.0 | 0.0 | 0.00 | 0.00 | 0.00 | 77 | 1018.1 |
| 20260503053558 | 43 | 213 | 0.0 | 0.0 | 0.00 | 0.00 | 0.00 | 76 | 1018.3 |
| 20260503053056 | 43 | 213 | 0.0 | 0.0 | 0.00 | 0.00 | 0.00 | 79 | 1018.2 |
| 20260503052553 | 43 | 213 | 0.0 | 0.0 | 0.00 | 0.00 | 0.00 | 78 | 1018.2 |
| 20260503052049 | 42 | 213 | 0.0 | 0.0 | 0.00 | 0.00 | 0.00 | 80 | 1018.4 |
| 20260503051544 | 42 | 213 | 0.0 | 0.0 | 0.00 | 0.00 | 0.00 | 84 | 1018.4 |
| 20260503051043 | 42 | 213 | 0.0 | 0.0 | 0.00 | 0.00 | 0.00 | 81 | 1018.4 |
| 20260503050538 | 42 | 213 | 0.0 | 0.0 | 0.00 | 0.00 | 0.00 | 82 | 1018.3 |
| 20260503050036 | 42 | 213 | 0.0 | 0.0 | 0.00 | 0.00 | 0.00 | 82 | 1018.3 |
| 20260503045532 | 42 | 213 | 0.0 | 0.0 | 0.00 | 0.00 | 0.00 | 80 | 1018.3 |
| 20260503045030 | 42 | 213 | 0.0 | 0.0 | 0.00 | 0.00 | 0.00 | 84 | 1018.3 |
| 20260503044526 | 42 | 213 | 0.0 | 0.0 | 0.00 | 0.00 | 0.00 | 82 | 1018.5 |
| 20260503044024 | 43 | 213 | 0.0 | 0.0 | 0.00 | 0.00 | 0.00 | 81 | 1018.3 |
| 20260503043520 | 42 | 213 | 0.0 | 0.0 | 0.00 | 0.00 | 0.00 | 81 | 1018.3 |
| 20260503043017 | 43 | 213 | 0.0 | 0.0 | 0.00 | 0.00 | 0.00 | 82 | 1018.5 |
| 20260503042514 | 43 | 213 | 0.0 | 0.0 | 0.00 | 0.00 | 0.00 | 82 | 1018.4 |
| 20260503042010 | 43 | 213 | 0.0 | 0.0 | 0.00 | 0.00 | 0.00 | 81 | 1018.5 |
| 20260503041507 | 43 | 213 | 0.0 | 0.0 | 0.00 | 0.00 | 0.00 | 79 | 1018.4 |
| 20260503041005 | 43 | 213 | 0.0 | 0.0 | 0.00 | 0.00 | 0.00 | 80 | 1018.4 |
| 20260503040502 | 43 | 213 | 0.0 | 0.0 | 0.00 | 0.00 | 0.00 | 82 | 1018.4 |
| 20260503035959 | 43 | 213 | 0.0 | 0.0 | 0.00 | 0.00 | 0.00 | 80 | 1018.5 |
| 20260503035455 | 43 | 213 | 0.0 | 0.0 | 0.00 | 0.00 | 0.00 | 80 | 1018.5 |
| 20260503034953 | 43 | 213 | 0.0 | 0.0 | 0.00 | 0.00 | 0.00 | 81 | 1018.4 |
| 20260503034450 | 43 | 213 | 0.0 | 0.0 | 0.00 | 0.00 | 0.00 | 80 | 1018.4 |
| 20260503033947 | 44 | 213 | 0.0 | 0.0 | 0.00 | 0.00 | 0.00 | 80 | 1018.5 |
| 20260503033444 | 44 | 213 | 0.0 | 0.0 | 0.00 | 0.00 | 0.00 | 80 | 1018.7 |
| 20260503032943 | 44 | 213 | 0.0 | 0.0 | 0.00 | 0.00 | 0.00 | 78 | 1018.6 |
| 20260503032441 | 44 | 213 | 0.0 | 0.0 | 0.00 | 0.00 | 0.00 | 79 | 1018.7 |
| 20260503031938 | 43 | 213 | 0.0 | 0.0 | 0.00 | 0.00 | 0.00 | 79 | 1018.8 |
| 20260503031436 | 44 | 213 | 0.0 | 0.0 | 0.00 | 0.00 | 0.00 | 78 | 1018.8 |
| 20260503030932 | 44 | 213 | 0.0 | 0.0 | 0.00 | 0.00 | 0.00 | 78 | 1018.9 |
| 20260503030429 | 44 | 213 | 0.0 | 0.0 | 0.00 | 0.00 | 0.00 | 77 | 1018.6 |
| 20260503025926 | 44 | 213 | 0.0 | 0.0 | 0.00 | 0.00 | 0.00 | 77 | 1018.7 |
| 20260503025422 | 44 | 213 | 0.0 | 0.0 | 0.00 | 0.00 | 0.00 | 76 | 1018.9 |
| 20260503024920 | 45 | 213 | 0.0 | 0.0 | 0.00 | 0.00 | 0.00 | 75 | 1018.8 |
| 20260503024416 | 45 | 213 | 0.0 | 0.0 | 0.00 | 0.00 | 0.00 | 74 | 1018.7 |
| 20260503023914 | 45 | 213 | 0.0 | 0.0 | 0.00 | 0.00 | 0.00 | 74 | 1018.9 |
| 20260503023410 | 45 | 213 | 0.0 | 0.0 | 0.00 | 0.00 | 0.00 | 74 | 1018.7 |
| 20260503022908 | 45 | 213 | 0.0 | 0.0 | 0.00 | 0.00 | 0.00 | 73 | 1018.7 |
| 20260503022402 | 46 | 213 | 0.0 | 0.0 | 0.00 | 0.00 | 0.00 | 72 | 1018.6 |
| 20260503021858 | 46 | 213 | 0.0 | 0.0 | 0.00 | 0.00 | 0.00 | 71 | 1018.6 |
| 20260503021355 | 47 | 213 | 0.0 | 0.0 | 0.00 | 0.00 | 0.00 | 69 | 1019.0 |
| 20260503020852 | 47 | 213 | 0.0 | 0.0 | 0.00 | 0.00 | 0.00 | 70 | 1018.5 |
| 20260503020350 | 47 | 213 | 0.0 | 0.0 | 0.00 | 0.00 | 0.00 | 68 | 1018.6 |
| 20260503015846 | 47 | 213 | 0.0 | 0.0 | 0.00 | 0.00 | 0.00 | 67 | 1018.6 |
| 20260503015343 | 48 | 213 | 0.0 | 0.0 | 0.00 | 0.00 | 0.00 | 65 | 1018.8 |
| 20260503014839 | 48 | 213 | 0.0 | 0.0 | 0.00 | 0.00 | 0.00 | 65 | 1018.4 |
| 20260503014336 | 49 | 213 | 0.0 | 0.0 | 0.00 | 0.00 | 0.00 | 64 | 1018.5 |
| 20260503013834 | 49 | 213 | 0.0 | 0.0 | 0.00 | 0.00 | 0.00 | 64 | 1018.4 |
| 20260503013331 | 49 | 213 | 0.0 | 0.0 | 0.00 | 0.00 | 0.00 | 62 | 1018.3 |
| 20260503012828 | 49 | 213 | 0.0 | 0.0 | 0.00 | 0.00 | 0.00 | 61 | 1018.6 |
| 20260503012326 | 50 | 213 | 0.0 | 0.0 | 0.00 | 0.00 | 0.00 | 62 | 1018.3 |
| 20260503011822 | 50 | 213 | 0.0 | 0.0 | 0.00 | 0.00 | 0.00 | 60 | 1018.3 |
| 20260503011319 | 51 | 213 | 0.0 | 0.0 | 0.00 | 0.00 | 0.00 | 57 | 1018.3 |
| 20260503010815 | 51 | 213 | 0.0 | 0.0 | 0.00 | 0.00 | 0.00 | 57 | 1018.4 |
| 20260503010313 | 51 | 213 | 0.0 | 0.0 | 0.00 | 0.00 | 0.00 | 55 | 1018.5 |
| 20260503005809 | 52 | 213 | 0.0 | 0.0 | 0.00 | 0.00 | 0.00 | 53 | 1018.3 |
| 20260503005307 | 52 | 213 | 0.0 | 0.0 | 0.00 | 0.00 | 0.00 | 52 | 1018.4 |
| 20260503004803 | 53 | 213 | 0.0 | 0.0 | 0.00 | 0.00 | 0.00 | 53 | 1018.4 |
| 20260503004301 | 53 | 213 | 0.0 | 0.0 | 0.00 | 0.00 | 0.00 | 53 | 1018.1 |
| 20260503003758 | 53 | 213 | 0.0 | 0.0 | 0.00 | 0.00 | 0.00 | 51 | 1018.2 |
| 20260503003255 | 54 | 213 | 0.0 | 0.0 | 0.00 | 0.00 | 0.00 | 51 | 1018.3 |
| 20260503002752 | 54 | 213 | 0.0 | 0.0 | 0.00 | 0.00 | 0.00 | 49 | 1018.5 |
| 20260503002249 | 55 | 218 | 0.0 | 0.0 | 0.00 | 0.00 | 0.00 | 47 | 1018.4 |
| 20260503001745 | 55 | 218 | 0.0 | 0.0 | 0.00 | 0.00 | 0.00 | 45 | 1018.4 |
| 20260503001241 | 56 | 218 | 0.0 | 0.0 | 0.00 | 0.00 | 0.00 | 46 | 1018.4 |
| 20260503000739 | 56 | 231 | 2.0 | 2.0 | 0.00 | 0.00 | 0.00 | 43 | 1018.4 |
| 20260503000236 | 56 | 226 | 0.0 | 0.0 | 0.00 | 0.00 | 0.00 | 43 | 1018.5 |
| 20260502235733 | 57 | 225 | 1.0 | 2.0 | 0.00 | 0.00 | 0.00 | 44 | 1018.6 |
| 20260502235231 | 57 | 226 | 0.0 | 0.0 | 0.00 | 0.00 | 0.00 | 46 | 1018.5 |